Temperature
17 18 18 18 17 15 15 14 14 13 12 11 10 10 10 10 10 10 10 10 10 10 10 10 10 11 11 11 11 12 12 13 14 14 14 14 14 13 13 12 12 12 11 11
18 19 18 16 15 14 13 13 13 12 11 10 10 10 10 9 9 9 9 9 9 9 10 10 10 10 10 10 11 11 11 11 12 13 13 13 13 13 13 12 12 11 11 11
16 17 18 15 13 13 12 11 11 11 10 10 10 10 9 8 8 9 9 9 9 9 9 9 10 10 10 10 10 10 10 10 11 11 11 12 12 12 12 12 12 11 11 11
14 17 17 13 13 13 12 11 10 10 10 10 9 8 8 9 9 9 9 9 9 9 10 10 10 10 9 9 9 9 9 10 10 10 10 11 11 11 12 12 11 11 11 11
13 15 14 13 13 12 11 11 10 9 9 9 9 8 9 10 10 9 9 9 9 9 9 9 9 9 9 9 9 9 9 9 9 9 9 10 10 11 11 11 11 11 11 11
13 15 15 12 12 12 12 11 9 9 8 8 8 6 7 9 9 9 9 9 9 9 9 9 9 9 9 9 9 9 9 9 9 9 8 9 9 10 10 11 11 11 11 11
13 14 12 10 10 11 11 10 10 9 9 8 7 7 8 8 9 9 9 9 9 9 9 9 9 9 8 8 9 9 9 8 8 8 8 8 9 9 10 10 11 11 11 11
12 13 12 10 10 10 10 11 10 10 9 9 8 8 8 8 8 8 8 8 8 8 8 8 8 8 8 8 8 8 8 8 8 8 8 8 8 8 9 10 10 10 10 10
11 10 10 10 10 11 10 10 10 9 9 9 8 8 8 8 8 8 8 8 8 7 7 7 7 7 7 7 7 8 8 8 8 8 8 7 7 8 8 9 10 10 10 10
9 9 10 11 11 11 10 10 9 9 9 9 8 8 8 8 8 8 8 7 7 7 7 7 7 7 6 6 7 7 7 7 7 7 7 7 7 7 8 8 9 10 10 10
9 9 10 11 11 10 10 9 9 9 9 8 8 8 8 7 7 7 7 7 7 6 6 6 6 6 6 6 6 6 6 6 7 7 7 7 7 7 7 8 9 10 10 11
9 10 9 10 10 9 9 9 9 8 8 8 8 8 7 7 7 7 6 6 6 6 6 6 5 5 5 5 5 5 5 6 6 7 7 7 7 7 7 8 9 10 11 11
10 10 10 9 9 9 9 9 8 8 8 8 7 7 7 7 6 6 6 6 6 5 5 5 5 5 5 5 5 5 5 5 6 6 6 6 6 6 7 8 8 9 10 11
10 10 9 9 9 9 9 8 8 8 8 7 7 7 6 6 6 5 5 5 5 5 4 4 4 4 4 4 4 4 4 5 5 6 6 6 6 6 6 7 8 9 9 10
10 9 9 9 9 8 8 8 7 7 7 6 6 6 5 5 5 4 4 4 4 4 4 4 4 4 4 4 4 4 4 4 5 5 6 6 6 6 6 7 8 9 9 9
9 9 9 8 8 8 8 7 7 6 6 6 5 5 4 4 4 4 4 4 4 3 3 3 3 4 4 4 3 3 4 4 5 5 6 6 6 6 6 7 8 9 9 9
8 8 8 8 7 7 7 6 6 5 5 5 4 4 3 3 3 3 3 3 3 3 3 3 4 4 4 4 3 3 4 4 5 5 6 6 6 6 7 8 8 9 9 10
8 8 8 8 7 6 6 6 5 5 4 4 3 3 3 3 3 3 3 3 3 3 4 4 4 4 4 3 3 3 4 4 5 5 6 6 6 6 7 8 9 9 10 10
8 8 8 7 6 6 5 5 4 4 3 3 2 2 2 3 3 3 3 3 3 4 4 4 4 4 4 3 3 4 4 4 5 6 6 6 6 7 7 8 9 9 10 10
8 7 7 6 5 5 4 4 3 3 3 3 2 2 2 3 3 3 3 4 4 4 4 4 4 4 4 4 4 4 4 5 5 6 6 6 6 7 8 9 9 9 10 10
7 6 6 5 5 4 4 3 3 3 3 3 3 2 2 3 3 3 4 4 4 4 4 4 4 4 4 4 4 4 5 5 6 6 6 6 7 7 8 9 9 10 10 11
6 6 5 4 4 4 4 3 3 3 4 3 3 3 3 3 4 4 4 4 4 4 4 4 4 4 4 4 4 5 5 6 6 6 6 7 7 8 8 9 10 10 11 11
6 5 4 4 4 3 4 4 4 4 3 3 3 3 3 3 4 4 4 5 5 5 4 4 4 4 4 5 5 5 6 6 6 6 7 7 8 8 9 9 10 11 11 11
5 5 4 4 4 3 3 4 4 4 3 3 3 3 3 4 4 4 5 5 5 5 5 5 5 5 5 5 5 6 6 6 7 7 7 7 8 9 9 10 11 11 12 12
5 4 4 4 3 3 3 4 4 4 3 3 3 4 4 4 4 4 5 5 5 5 6 6 5 6 6 6 6 6 7 7 7 7 8 8 9 9 10 11 11 12 12 12
4 4 4 4 3 3 3 3 3 3 3 3 3 4 4 4 4 5 5 6 6 6 6 6 6 6 6 7 7 7 7 7 7 8 8 9 9 10 10 11 11 12 12 12
4 4 4 4 4 4 4 4 3 3 3 3 3 4 4 4 4 5 5 6 6 6 6 7 7 7 7 7 7 7 7 8 8 8 9 9 10 10 11 11 11 12 12 12
Wind_Speed
8 6 1 1 5 6 3 1 4 1 4 4 7 7 8 9 9 10 11 12 12 12 11 11 11 11 11 12 12 12 13 14 13 12 10 9 8 7 5 4 3 3 3 4
4 2 2 4 7 5 5 5 4 5 3 3 6 7 9 10 11 11 12 14 14 13 13 13 13 13 13 13 13 12 12 13 14 12 9 9 9 8 6 5 3 1 1 2
4 4 3 4 7 4 3 4 3 2 3 8 9 12 12 13 12 11 12 13 14 14 13 13 13 13 13 13 13 13 12 12 13 12 11 10 9 8 8 7 5 3 2 1
2 4 1 2 4 5 3 2 4 3 6 9 10 12 13 13 11 11 12 13 15 15 14 14 14 14 13 13 12 12 12 12 12 12 12 10 8 10 9 7 6 5 5 4
2 1 2 3 4 6 4 2 2 5 10 10 10 9 9 8 8 10 12 14 14 14 15 14 15 15 13 14 13 13 13 12 12 12 12 11 10 10 9 8 8 7 7 7
3 3 1 1 7 9 5 3 2 6 10 11 9 9 8 9 11 15 17 15 15 14 14 14 15 13 12 14 14 15 14 12 11 11 11 11 11 11 8 9 10 10 8 8
3 2 1 2 9 7 2 6 8 9 10 11 9 11 12 14 16 17 18 18 17 16 14 13 14 12 13 14 15 15 13 12 12 11 10 11 10 9 9 11 11 11 10 9
2 3 3 4 5 2 6 7 8 10 11 13 15 16 17 16 16 16 17 17 16 15 15 14 13 12 14 15 16 14 13 13 13 11 11 10 9 9 8 11 13 13 11 9
1 0 3 3 4 7 8 9 11 10 14 15 16 17 18 17 17 17 17 17 15 15 15 14 12 12 14 16 15 14 13 13 13 12 10 9 9 9 7 10 12 13 13 12
1 2 4 7 8 8 9 10 12 14 16 15 17 19 19 17 16 15 16 16 16 15 16 15 13 13 14 15 14 13 13 13 12 11 11 10 8 7 6 9 12 14 14 14
1 5 8 7 8 10 11 12 14 15 15 16 18 19 19 18 17 17 16 16 15 15 17 17 15 14 15 14 13 13 13 12 11 11 11 10 9 7 8 10 14 16 16 16
3 6 6 10 11 12 13 13 16 17 17 16 17 20 21 19 18 17 17 17 16 17 17 17 16 15 15 13 12 12 12 11 10 9 9 9 9 10 11 12 16 19 19 18
6 7 8 12 11 11 11 15 18 18 18 20 18 18 19 18 18 17 18 19 19 18 18 18 16 16 15 13 12 12 12 11 9 9 9 9 8 7 8 8 11 17 19 20
8 7 9 10 12 15 16 18 18 16 17 18 18 18 18 19 19 19 20 20 19 19 19 18 17 17 14 12 12 12 11 12 11 9 9 9 8 7 7 8 8 10 12 18
10 9 11 13 13 15 16 16 18 18 17 17 16 18 19 21 22 22 21 21 20 20 20 19 18 17 13 12 12 12 10 8 8 9 9 9 8 7 8 9 10 13 10 11
10 12 13 13 16 17 18 18 18 17 18 18 19 19 20 21 23 23 22 21 21 22 21 19 18 17 13 11 11 9 9 14 12 9 9 8 7 8 8 8 10 14 15 14
9 10 12 16 16 17 17 16 16 17 19 20 21 22 23 23 24 23 23 22 21 21 20 19 18 16 12 10 9 8 8 10 13 10 8 7 7 8 8 7 10 13 14 15
10 11 13 16 17 19 19 17 18 19 20 22 23 23 24 24 24 25 24 23 21 20 18 16 15 12 10 9 8 7 7 7 7 7 7 7 7 7 6 7 11 14 13 13
13 13 14 16 16 16 17 17 19 19 20 21 22 23 23 24 24 23 23 22 21 19 16 13 14 11 8 9 8 6 6 7 7 7 7 7 7 6 6 7 11 13 14 14
12 13 14 15 15 15 17 17 18 20 21 21 22 23 23 24 24 23 22 19 15 13 12 12 10 8 7 7 7 5 6 6 6 6 6 6 6 5 5 8 12 13 13 14
13 14 15 15 16 16 16 18 19 20 22 21 21 23 24 24 23 21 19 16 14 12 11 11 7 5 4 4 5 4 5 5 5 5 5 4 4 4 5 9 12 13 13 13
11 12 14 15 16 17 17 17 17 20 21 21 23 23 23 23 22 20 16 12 12 13 10 6 4 4 4 3 2 3 4 4 4 3 4 4 4 4 6 10 11 12 12 12
11 11 13 15 16 18 19 17 18 19 20 22 23 23 22 21 17 16 15 12 11 13 9 5 5 5 4 2 2 3 3 3 3 3 3 3 3 4 7 10 10 11 11 11
10 11 13 14 15 15 18 20 20 18 20 21 20 21 20 18 16 13 12 15 14 13 8 6 6 5 3 1 2 2 2 2 2 3 3 2 3 4 7 9 10 10 10 12
10 10 11 14 15 14 15 18 19 19 19 18 20 21 17 14 15 16 14 14 14 12 8 6 6 4 2 1 1 2 2 2 2 2 2 2 3 5 7 9 9 10 10 9
9 10 12 13 12 12 14 14 15 16 17 18 18 17 17 15 16 15 13 14 14 12 8 5 4 2 1 1 1 2 2 2 2 2 1 2 5 6 6 8 10 9 8 8
9 9 10 11 11 12 13 14 15 16 17 17 18 17 17 16 16 17 16 13 12 10 8 6 4 3 2 1 1 1 1 1 0 0 2 3 5 6 7 8 8 8 8 8
Wind_Direction
240 248 210 20 9 28 66 267 225 161 109 12 343 337 332 334 337 347 353 353 351 345 340 336 336 335 332 331 331 332 331 328 316 296 271 250 235 231 234 243 266 301 337 360
290 290 143 75 33 43 41 25 64 95 82 343 320 326 332 331 331 338 342 341 336 332 329 327 325 324 323 321 321 322 323 325 325 313 286 258 239 227 220 222 230 259 334 24
281 310 87 43 12 37 61 35 28 49 335 322 327 331 326 315 311 314 323 324 320 316 312 309 306 306 306 306 310 312 313 317 325 324 304 275 250 228 218 213 203 199 191 137
300 3 273 89 47 58 89 95 59 9 319 316 307 302 293 284 278 285 302 309 306 302 299 297 296 295 293 295 296 300 304 309 315 322 318 295 260 237 221 209 199 194 188 175
63 11 125 115 21 0 319 247 82 331 316 310 304 302 291 283 266 275 290 293 291 288 286 286 288 287 289 291 291 293 294 298 305 311 315 311 280 250 228 206 199 194 187 178
52 332 287 65 322 317 280 244 211 294 298 302 316 312 294 282 287 295 297 296 293 291 287 285 285 283 281 284 285 284 284 286 292 296 300 306 297 265 234 212 200 190 187 183
43 315 82 300 308 330 16 294 292 291 289 292 285 275 281 287 291 290 291 292 292 292 290 285 286 285 281 282 279 277 278 282 285 286 289 295 301 278 238 215 196 186 184 181
13 352 342 333 356 24 267 274 284 288 286 286 285 286 290 292 290 289 290 288 287 285 283 282 282 283 284 282 280 280 280 281 282 282 286 298 303 292 250 217 195 184 179 175
73 132 261 265 254 258 264 278 283 282 284 289 291 291 291 290 288 288 286 285 283 278 279 279 276 273 277 279 281 282 280 279 278 281 279 280 293 298 269 223 198 186 182 181
82 280 278 278 271 271 273 273 280 283 286 288 288 289 289 289 287 285 283 282 281 278 278 279 275 273 273 276 277 276 274 275 275 277 278 275 284 288 277 234 202 187 184 182
312 291 303 294 280 283 293 293 291 291 289 286 287 289 289 290 289 287 286 284 280 277 276 276 274 271 273 274 273 272 272 273 273 271 272 274 276 276 278 252 215 191 186 181
259 260 258 274 282 293 294 291 292 294 294 289 286 288 291 292 290 290 289 286 284 280 278 277 275 272 269 267 265 265 270 271 270 269 270 270 278 287 280 260 221 197 183 177
248 266 264 275 286 286 284 287 292 292 292 295 295 292 293 292 293 291 290 290 288 285 283 280 277 274 270 264 261 259 259 264 269 270 268 266 269 281 296 280 209 187 177 172
266 276 285 284 288 292 292 293 295 293 292 292 296 297 298 297 297 295 295 294 292 289 286 283 279 276 270 261 257 257 257 265 268 265 265 261 261 270 279 262 199 180 180 173
284 283 279 288 291 294 296 300 303 303 301 301 300 301 302 302 301 299 297 297 295 291 289 286 282 278 270 260 254 254 255 259 262 264 263 257 257 264 271 255 195 173 163 169
289 294 293 296 300 302 305 306 307 305 305 307 307 306 305 302 300 299 298 298 296 294 292 288 284 280 270 258 252 252 252 263 267 264 259 252 253 261 265 238 186 171 172 167
301 302 303 306 308 306 307 307 307 308 310 311 310 309 308 306 304 303 302 301 296 293 290 286 284 280 268 254 247 247 249 259 268 271 256 248 254 260 256 218 180 172 172 167
289 291 296 302 308 311 312 311 310 311 311 310 310 311 310 309 307 306 305 304 300 295 289 284 281 279 266 255 244 239 242 249 256 259 257 251 255 259 245 201 177 169 164 162
306 303 305 306 308 308 309 310 311 311 310 312 313 312 310 308 307 307 306 305 302 300 296 288 282 280 268 253 249 229 235 247 256 255 254 256 261 254 226 187 171 164 160 162
305 305 307 308 309 309 310 310 311 312 313 315 314 314 313 312 311 310 308 305 300 300 298 294 288 275 260 253 253 229 235 247 253 253 252 253 255 242 205 175 163 160 161 165
306 308 310 312 313 312 310 312 315 315 316 317 317 316 315 314 313 313 311 311 310 312 312 301 292 276 257 245 246 232 236 243 246 246 249 253 253 225 188 166 160 161 163 167
304 309 311 314 315 316 317 317 317 317 318 320 320 318 317 318 317 317 312 312 314 318 320 313 301 278 262 248 229 231 240 244 241 236 245 253 245 207 173 162 160 162 164 166
305 307 311 314 316 316 317 321 323 323 322 322 320 319 319 318 318 319 322 323 323 324 325 316 313 304 287 265 240 239 244 242 235 241 258 261 224 187 167 160 159 160 161 163
309 310 311 312 317 321 324 326 326 324 322 320 319 319 321 322 323 323 321 321 327 328 328 318 313 310 299 254 241 238 240 244 244 256 269 254 197 171 161 158 157 158 159 161
309 311 315 323 329 327 323 323 325 326 326 326 323 325 327 327 326 328 327 328 330 330 332 328 324 312 296 262 244 229 237 247 252 265 266 226 173 158 155 155 155 155 157 161
313 319 319 317 317 319 324 326 327 328 329 329 330 331 333 334 333 334 334 334 335 333 335 332 327 314 287 271 255 248 253 264 274 263 227 168 154 149 147 149 152 156 158 162
315 317 320 326 328 328 328 328 328 328 329 331 332 333 337 340 342 343 343 343 343 344 344 343 341 335 324 307 287 289 291 304 317 134 133 130 137 144 150 153 156 158 160 164
Height
1511 1507 1508 1511 1514 1515 1518 1520 1524 1522 1525 1529 1527 1525 1522 1518 1514 1510 1506 1502 1499 1496 1492 1489 1485 1480 1477 1473 1469 1465 1460 1456 1452 1449 1447 1447 1446 1445 1444 1442 1440 1437 1435 1431
1510 1505 1507 1515 1518 1519 1522 1522 1522 1524 1528 1528 1526 1523 1520 1517 1513 1509 1505 1501 1498 1495 1491 1487 1483 1478 1474 1470 1466 1461 1456 1452 1447 1443 1440 1439 1440 1440 1439 1438 1437 1436 1434 1431
1519 1511 1510 1524 1526 1525 1526 1527 1527 1527 1531 1527 1524 1521 1519 1515 1511 1508 1504 1500 1497 1493 1489 1485 1480 1476 1471 1467 1462 1458 1453 1448 1443 1439 1435 1433 1434 1434 1434 1434 1433 1433 1432 1431
1523 1516 1524 1536 1529 1528 1529 1530 1530 1530 1529 1527 1524 1520 1515 1511 1508 1505 1502 1498 1493 1489 1484 1481 1476 1472 1467 1462 1458 1453 1448 1443 1439 1434 1431 1428 1427 1428 1428 1429 1429 1430 1430 1430
1528 1526 1530 1531 1531 1531 1531 1529 1531 1530 1526 1523 1520 1516 1511 1508 1506 1502 1498 1493 1488 1483 1478 1474 1470 1465 1461 1456 1452 1448 1443 1439 1434 1430 1426 1423 1421 1421 1422 1423 1424 1426 1427 1428
1529 1527 1530 1538 1532 1529 1529 1527 1530 1527 1524 1521 1517 1515 1509 1505 1501 1496 1491 1486 1481 1476 1471 1466 1462 1458 1453 1448 1444 1441 1437 1433 1429 1425 1421 1417 1415 1414 1414 1416 1418 1421 1423 1425
1533 1532 1534 1538 1532 1529 1535 1534 1528 1525 1521 1518 1515 1511 1503 1498 1494 1489 1484 1479 1474 1469 1464 1459 1455 1450 1444 1440 1436 1433 1429 1425 1422 1419 1415 1411 1408 1406 1406 1408 1411 1414 1418 1421
1535 1536 1539 1536 1533 1535 1535 1528 1524 1521 1517 1513 1508 1502 1497 1491 1486 1481 1476 1471 1467 1461 1455 1451 1447 1442 1435 1431 1428 1424 1421 1417 1414 1412 1408 1405 1401 1399 1397 1398 1402 1406 1411 1416
1537 1541 1538 1535 1534 1532 1529 1525 1521 1517 1512 1507 1501 1495 1489 1484 1478 1473 1467 1462 1457 1452 1445 1441 1438 1433 1427 1422 1419 1416 1412 1409 1407 1404 1401 1398 1395 1391 1389 1389 1392 1398 1404 1409
1537 1536 1535 1533 1530 1528 1525 1521 1516 1512 1506 1501 1494 1488 1481 1475 1469 1463 1458 1452 1447 1441 1435 1430 1426 1423 1418 1413 1410 1406 1403 1400 1398 1396 1393 1390 1387 1384 1381 1381 1383 1389 1396 1402
1538 1535 1532 1529 1527 1524 1520 1515 1510 1505 1500 1494 1488 1480 1473 1466 1460 1453 1447 1441 1436 1430 1423 1418 1414 1411 1407 1403 1400 1397 1394 1391 1389 1387 1385 1382 1379 1376 1373 1372 1375 1380 1387 1394
1538 1534 1532 1527 1522 1519 1514 1509 1503 1497 1491 1485 1480 1472 1464 1457 1450 1443 1436 1430 1424 1418 1412 1406 1402 1398 1395 1392 1390 1387 1384 1382 1380 1379 1376 1374 1371 1367 1364 1364 1367 1375 1382 1389
1534 1531 1528 1522 1518 1514 1508 1502 1497 1490 1484 1476 1470 1463 1456 1447 1440 1432 1425 1418 1411 1405 1399 1394 1389 1385 1382 1380 1378 1376 1374 1372 1371 1370 1368 1367 1364 1361 1358 1357 1360 1369 1377 1386
1531 1527 1521 1517 1513 1508 1502 1496 1489 1483 1476 1470 1462 1454 1446 1438 1429 1421 1413 1406 1399 1392 1386 1381 1376 1372 1370 1368 1367 1365 1364 1363 1362 1361 1361 1359 1357 1355 1353 1353 1355 1362 1372 1381
1527 1523 1518 1512 1507 1501 1495 1488 1481 1474 1467 1460 1453 1445 1436 1427 1418 1409 1401 1394 1387 1380 1374 1369 1364 1360 1358 1357 1355 1354 1354 1353 1353 1353 1353 1352 1351 1349 1348 1347 1350 1357 1366 1376
1522 1518 1513 1508 1501 1495 1488 1481 1474 1466 1458 1450 1442 1434 1426 1417 1407 1398 1390 1383 1375 1367 1361 1356 1351 1348 1346 1345 1344 1344 1344 1345 1345 1345 1345 1345 1345 1343 1342 1342 1346 1353 1361 1370
1517 1512 1506 1500 1495 1488 1482 1476 1468 1459 1451 1442 1433 1424 1415 1405 1395 1386 1378 1371 1364 1356 1350 1344 1340 1337 1335 1335 1335 1335 1335 1336 1337 1338 1339 1339 1339 1337 1337 1338 1343 1349 1357 1366
1516 1510 1504 1498 1491 1483 1475 1468 1461 1452 1443 1434 1424 1415 1405 1396 1386 1376 1367 1359 1352 1345 1339 1334 1330 1327 1326 1326 1326 1327 1328 1329 1330 1331 1333 1333 1333 1332 1333 1335 1341 1347 1355 1364
1511 1506 1500 1494 1487 1479 1471 1462 1454 1445 1435 1426 1416 1407 1397 1387 1378 1368 1359 1350 1342 1335 1329 1325 1323 1320 1319 1319 1320 1321 1322 1324 1325 1327 1328 1328 1328 1328 1329 1333 1339 1345 1353 1361
1506 1500 1494 1488 1481 1473 1465 1456 1447 1437 1428 1419 1409 1399 1389 1379 1370 1360 1351 1343 1336 1329 1323 1319 1316 1314 1314 1314 1315 1316 1318 1320 1321 1323 1324 1324 1324 1325 1328 1332 1338 1344 1352 1359
1501 1495 1489 1482 1474 1466 1458 1449 1440 1430 1421 1412 1403 1393 1383 1372 1363 1354 1345 1336 1329 1324 1319 1315 1312 1311 1311 1311 1312 1314 1315 1317 1319 1320 1321 1322 1322 1324 1327 1331 1338 1344 1351 1358
1496 1490 1483 1476 1468 1459 1451 1443 1435 1425 1416 1407 1397 1388 1377 1367 1357 1349 1342 1334 1327 1321 1316 1312 1310 1309 1309 1310 1311 1312 1314 1316 1318 1319 1320 1320 1321 1324 1327 1332 1338 1344 1351 1358
1492 1486 1478 1471 1463 1454 1446 1438 1429 1421 1412 1402 1393 1383 1373 1364 1355 1346 1337 1332 1325 1320 1316 1313 1311 1310 1310 1310 1311 1313 1314 1315 1317 1318 1318 1319 1321 1324 1328 1333 1339 1345 1351 1358
1487 1481 1474 1467 1458 1450 1441 1433 1426 1418 1409 1400 1390 1381 1371 1360 1351 1344 1337 1331 1326 1321 1317 1314 1313 1312 1312 1312 1313 1313 1315 1315 1316 1317 1317 1319 1322 1325 1330 1335 1340 1346 1353 1359
1483 1476 1469 1462 1454 1446 1439 1431 1422 1414 1406 1397 1387 1378 1369 1360 1351 1343 1336 1330 1326 1321 1318 1316 1314 1314 1313 1313 1314 1315 1315 1315 1316 1316 1317 1320 1323 1327 1332 1337 1343 1349 1355 1360
1479 1473 1467 1460 1453 1445 1438 1429 1421 1413 1405 1395 1386 1377 1368 1359 1351 1343 1337 1331 1327 1323 1320 1318 1316 1315 1315 1315 1315 1315 1315 1316 1316 1317 1319 1322 1326 1330 1335 1340 1346 1351 1357 1362
1476 1470 1463 1456 1450 1444 1437 1429 1421 1413 1405 1396 1387 1378 1370 1361 1352 1345 1339 1333 1328 1325 1322 1320 1318 1317 1317 1317 1317 1317 1317 1318 1318 1320 1323 1326 1330 1334 1339 1344 1349 1354 1359 1363